AGROMETEOROLOŠKI PORTAL

vinorodna pokrajina

Temelj dobrega kmetovanja

Pregled podatkov za lokacijo Dravinjski vrh, meteorološka postaja 42840

Pregled senzorjev na lokaciji

ID Ime Zadnja
vrednost
Datum in čas
meritve
(lokalni čas)
Tip
senzorja
4986 Omočenost lista (1,5 m) (U) 0 U 4.2.2023 22:30 A730WET
4993 Padavine (mm) 0 mm 4.2.2023 22:30 Generic 0.2 mm
4992 Relativna zračna vlaga (2 m) (%RH) 57 %RH 4.2.2023 22:30 50YA
4991 Temperatura (2 m) (°C) 0 °C 4.2.2023 22:30 50YA
5242 Smer vetra (3 m) (°) 356 ° 4.2.2023 22:30 Generic 0 - 360
5241 Hitrost vetra (3 m) (km/h) 8 km/h 4.2.2023 22:30 Generic 200 km/h

Pregled podatkov zadnjih 24 ur

Zap.
št.
Datum in čas
(lokalni čas)
Dravinjski vrh
Omočenost
lista
(1,5
m)
Padavine Relativna
zračna
vlaga
(2
m)
Temperatura
(2
m)
Smer
vetra
(3
m)
Hitrost
vetra
(3
m)
1 4.2.2023 22:30 0 0 57,2 0 355,8 7,9
2 4.2.2023 22:00 0 0 57,8 0 344,3 8,4
3 4.2.2023 21:30 0 0 58,6 0 352 9,5
4 4.2.2023 21:00 0 0 62,4 -0,2 318,9 5,7
5 4.2.2023 20:30 0 0 63,3 0 17 5,7
6 4.2.2023 20:00 0 0 61,3 0,5 133,2 4,7
7 4.2.2023 19:30 0 0 61 0,7 290,8 4,4
8 4.2.2023 19:00 0 0 60,2 1 326,3 7,2
9 4.2.2023 18:30 0 0 57,1 1,7 6,6 8,9
10 4.2.2023 18:00 0 0 53,6 2,3 51,1 7,5
11 4.2.2023 17:30 0 0 46,9 3,1 20,5 10,6
12 4.2.2023 17:00 0 0 44,4 3,6 313,8 14,7
13 4.2.2023 16:30 0 0 43,9 4,3 338,5 11,7
14 4.2.2023 16:00 0 0 43,4 4,7 316,6 16,5
15 4.2.2023 15:30 0 0 43,9 4,9 282,2 15,7
16 4.2.2023 15:00 0 0 44,9 5 324,2 17,9
17 4.2.2023 14:30 0 0 44 5,1 288,6 19,4
18 4.2.2023 14:00 0 0 43,5 5,3 299,2 22,6
19 4.2.2023 13:30 0 0 43,4 5,7 309,1 18,4
20 4.2.2023 13:00 0 0 45,4 5,6 320,1 25,9
21 4.2.2023 12:30 0 0 47,3 5,8 289,5 22,5
22 4.2.2023 12:00 0 0 48,1 6,4 328,5 21,4
23 4.2.2023 11:30 0 0 51,7 6,6 316,9 16,2
24 4.2.2023 11:00 0 0 65,5 5,9 294,9 16,4
25 4.2.2023 10:30 0 0 73,6 5,4 266,8 20,8
26 4.2.2023 10:00 0 0 73,5 5,3 288,9 18,8
27 4.2.2023 09:30 1 0 70,7 5,3 283,3 24,4
28 4.2.2023 09:00 1 0 66,8 5,4 282,4 17,1
29 4.2.2023 08:30 0 0 69,7 4,8 296,1 15,5
30 4.2.2023 08:00 0 0 70,5 4,9 277,7 13,6
31 4.2.2023 07:30 0 0 72 4,8 219,6 12,4
32 4.2.2023 07:00 1 0 77,7 4,5 288,8 8,2
33 4.2.2023 06:30 1 0 77,6 4,9 306 4,8
34 4.2.2023 06:00 1 0 77,3 5,2 287,5 4,1
35 4.2.2023 05:30 1 0 75,7 5,5 186,4 3,3
36 4.2.2023 05:00 1 0 75,5 5,5 264,4 3,4
37 4.2.2023 04:30 0 0 73,4 6 208,2 4,8
38 4.2.2023 04:00 0 0 71,6 6,4 224,5 2,9
39 4.2.2023 03:30 0 0 71,4 6,3 295,8 3,9
40 4.2.2023 03:00 0 0 74,8 5,2 181,1 2,7
41 4.2.2023 02:30 0 0 74,5 5,4 16,9 3
42 4.2.2023 02:00 0 0 74,7 5,3 14,3 5
43 4.2.2023 01:30 0 0 70,5 6,4 302,3 2,8
44 4.2.2023 01:00 1 0 72,3 5,9 58,6 1,6
45 4.2.2023 00:30 0 0 69,1 6,6 336,8 4,1
46 4.2.2023 00:00 0 0 65,5 7,2 261,6 3,7
47 3.2.2023 23:30 0 0 63,7 7,3 173,6 3,7
48 3.2.2023 23:00 0 0 58 8,7 252,8 7,6